Location: New Plymouth
(39.0670°S, 174.0830°E)
Time: 16:06:31
(UTC+12:00)

NOAA 19 - Pass Details

Date: 19 August 2019
Orbit: 840 x 862 km, 99.2° (Epoch: 15 September)

Event Time Altitude Azimuth Distance (km) Brightness Sun altitude
Rises 03:40:09 0° 55° (NE) 3,395 8.7 -40.3°
Reaches altitude 10° 03:43:01 10° 70° (ENE) 2,469 8.1 -39.8°
Maximum altitude 03:47:02 21° 117° (ESE) 1,810 7.4 -39.0°
Drops below altitude 10° 03:51:04 10° 164° (SSE) 2,494 7.9 -38.3°
Sets 03:53:58 0° 179° (S) 3,439 8.5 -37.7°
